AD4CG Weather Reports


time (UTC)temp
C
wind
direction
speed
KPH
gust
KPH
rain 1hr
cm
rain 24hr
cm
rain mn
cm
humidity
%
barometer
mb
20260503050006 9 334 0.0 8.0 0.00 0.48 0.91 100 1015.2
20260503045502 9 334 1.6 8.0 0.00 0.48 0.91 100 1015.2
20260503044948 9 335 4.8 8.0 0.00 0.48 0.91 100 1015.2
20260503044446 9 345 6.4 8.0 0.00 0.48 0.91 100 1015.2
20260503043943 9 345 3.2 8.0 0.00 0.48 0.91 100 1015.6
20260503043432 9 345 3.2 8.0 0.00 0.48 0.91 100 1015.2
20260503042905 9 346 4.8 8.0 0.00 0.48 0.91 100 1015.6
20260503042353 9 346 4.8 8.0 0.00 0.48 0.91 100 1015.2
20260503041833 9 346 6.4 8.0 0.00 0.48 0.91 100 1015.2
20260503041323 9 346 4.8 8.0 0.00 0.48 0.91 100 1015.2
20260503040754 9 347 3.2 8.0 0.00 0.48 0.91 100 1015.2
20260503040240 9 345 6.4 6.4 0.00 0.48 0.91 100 1014.9
20260503035730 9 96 1.6 14.5 0.00 0.48 0.91 100 1015.2
20260503035225 9 94 3.2 14.5 0.00 0.48 0.91 100 1014.9
20260503034702 9 95 1.6 14.5 0.00 0.48 0.91 100 1014.9
20260503034154 9 95 0.0 14.5 0.00 0.48 0.91 100 1014.9
20260503033637 9 95 0.0 14.5 0.00 0.48 0.91 100 1015.2
20260503033136 9 95 0.0 14.5 0.00 0.48 0.91 100 1014.9
20260503032614 9 95 1.6 14.5 0.00 0.48 0.91 100 1014.6
20260503032037 8 96 0.0 14.5 0.00 0.48 0.91 100 1014.6
20260503031532 9 95 0.0 14.5 0.00 0.48 0.91 100 1014.6
20260503031009 9 96 0.0 14.5 0.00 0.48 0.91 100 1014.6
20260503030447 9 95 0.0 14.5 0.00 0.48 0.91 100 1014.6
20260503025924 9 95 0.0 14.5 0.00 0.48 0.91 100 1014.9
20260503025401 9 94 0.0 14.5 0.00 0.48 0.91 100 1014.6
20260503024837 9 95 0.0 14.5 0.00 0.48 0.91 100 1014.6
20260503024335 9 94 0.0 14.5 0.00 0.48 0.91 100 1014.6
20260503023808 10 95 0.0 14.5 0.00 0.48 0.91 100 1014.6
20260503023252 10 95 0.0 14.5 0.00 0.48 0.91 100 1014.6
20260503022735 10 95 0.0 14.5 0.00 0.48 0.91 100 1014.9
20260503022222 10 95 0.0 14.5 0.00 0.48 0.91 100 1014.6
20260503021706 10 95 0.0 14.5 0.00 0.48 0.91 100 1014.6
20260503021149 10 96 0.0 14.5 0.00 0.48 0.91 100 1014.9
20260503020638 10 95 0.0 14.5 0.00 0.48 0.91 100 1014.9
20260503020135 10 95 0.0 14.5 0.00 0.48 0.91 100 1014.6
20260503015631 10 94 0.0 14.5 0.00 0.48 0.91 100 1014.6
20260503015109 10 95 1.6 14.5 0.00 0.48 0.91 100 1014.6
20260503014548 10 96 0.0 14.5 0.00 0.48 0.91 100 1014.2
20260503014022 10 96 0.0 14.5 0.00 0.48 0.91 100 1014.2
20260503013505 10 95 0.0 14.5 0.00 0.48 0.91 100 1014.2
20260503012947 10 95 0.0 14.5 0.00 0.48 0.91 100 1014.2
20260503012432 10 95 0.0 14.5 0.00 0.48 0.91 100 1014.2
20260503011915 10 95 0.0 14.5 0.00 0.48 0.91 100 1013.9
20260503011342 10 95 0.0 14.5 0.00 0.48 0.91 100 1013.9
20260503010818 10 94 0.0 14.5 0.00 0.48 0.91 100 1013.9
20260503010253 10 96 0.0 14.5 0.00 0.48 0.91 100 1013.5
20260503005739 10 95 0.0 14.5 0.00 0.48 0.91 100 1013.5
20260503005225 10 94 0.0 14.5 0.00 0.48 0.91 100 1013.9
20260503004705 10 95 0.0 14.5 0.00 0.48 0.91 100 1013.2
20260503004149 11 95 0.0 14.5 0.00 0.48 0.91 100 1013.5
20260503003637 11 96 0.0 14.5 0.00 0.48 0.91 100 1013.2
20260503003120 11 95 0.0 14.5 0.00 0.48 0.91 100 1013.2
20260503002617 11 95 0.0 14.5 0.00 0.48 0.91 100 1013.2
20260503002057 11 95 0.0 14.5 0.00 0.48 0.91 100 1012.9
20260503001535 11 95 0.0 14.5 0.00 0.48 0.91 100 1012.9
20260503001008 11 95 0.0 14.5 0.00 0.48 0.91 100 1012.9
20260503000458 11 95 0.0 14.5 0.00 0.48 0.91 100 1012.9
20260502235941 11 95 0.0 14.5 0.00 0.48 0.91 100 1012.9
20260502235426 11 96 0.0 14.5 0.00 0.48 0.91 100 1012.9
20260502234910 11 95 0.0 14.5 0.00 0.48 0.91 100 1013.2
20260502234354 11 95 0.0 14.5 0.00 0.48 0.91 100 1012.5
20260502233837 11 95 0.0 14.5 0.00 0.48 0.91 100 1012.5
20260502233322 11 95 0.0 14.5 0.00 0.48 0.91 100 1012.5
20260502232808 11 95 0.0 14.5 0.00 0.48 0.91 100 1012.5
20260502232257 11 95 0.0 14.5 0.00 0.48 0.91 100 1012.2
20260502231736 11 94 0.0 14.5 0.00 0.48 0.91 100 1012.2
20260502231208 11 95 0.0 14.5 0.00 0.48 0.91 100 1012.5
20260502230654 11 95 0.0 14.5 0.00 0.48 0.91 100 1012.5
20260502230133 11 87 3.2 14.5 0.00 0.48 0.91 100 1012.5
20260502225613 11 87 0.0 14.5 0.00 0.48 0.91 100 1012.9
20260502225051 11 87 1.6 14.5 0.00 0.48 0.91 100 1012.9
20260502224549 11 87 0.0 14.5 0.00 0.48 0.91 100 1012.5
20260502224017 11 87 1.6 14.5 0.00 0.48 0.91 100 1012.5
20260502223501 11 86 3.2 14.5 0.00 0.48 0.91 100 1012.5
20260502222947 11 87 0.0 14.5 0.00 0.48 0.91 100 1012.2
20260502222429 11 87 0.0 14.5 0.00 0.48 0.91 100 1012.2
20260502221911 11 87 0.0 14.5 0.00 0.48 0.91 100 1012.5
20260502221337 11 87 0.0 14.5 0.00 0.48 0.91 100 1012.2
20260502220812 11 87 3.2 14.5 0.00 0.48 0.91 100 1012.5
20260502220242 11 87 0.0 14.5 0.00 0.48 0.91 100 1012.5
20260502215726 11 87 1.6 14.5 0.00 0.48 0.91 100 1012.5
20260502215207 11 87 3.2 14.5 0.00 0.48 0.91 100 1012.2
20260502214636 11 86 3.2 14.5 0.00 0.48 0.91 100 1011.9
20260502214107 11 85 0.0 14.5 0.00 0.48 0.91 100 1012.2
20260502213546 11 30 3.2 14.5 0.00 0.48 0.91 100 1012.2
20260502213033 11 31 3.2 14.5 0.00 0.48 0.91 100 1012.2
20260502212514 11 31 0.0 14.5 0.00 0.48 0.91 100 1012.2
20260502211951 11 8 1.6 14.5 0.00 0.48 0.91 100 1012.2
20260502211440 11 8 0.0 14.5 0.00 0.48 0.91 100 1012.9
20260502210914 11 7 0.0 14.5 0.00 0.48 0.91 100 1012.2
20260502210354 11 8 1.6 14.5 0.03 0.48 0.91 100 1012.5
20260502205834 11 21 0.0 14.5 0.03 0.48 0.91 100 1012.2
20260502205319 11 21 1.6 14.5 0.03 0.48 0.91 100 1012.2
20260502204759 11 20 3.2 14.5 0.00 0.46 0.91 100 1012.2
20260502204241 11 20 4.8 14.5 0.00 0.46 0.91 100 1011.9
20260502203738 11 20 3.2 14.5 0.00 0.46 0.91 100 1012.2
20260502203213 11 19 1.6 14.5 0.00 0.46 0.91 100 1012.2
20260502202711 11 14 3.2 14.5 0.00 0.46 0.91 100 1012.5
20260502202146 11 14 4.8 14.5 0.00 0.46 0.91 100 1012.5
20260502201629 11 15 1.6 14.5 0.00 0.46 0.91 100 1012.2
20260502201114 11 15 1.6 14.5 0.03 0.46 0.91 100 1012.5
20260502200552 11 46 0.0 14.5 0.00 0.46 0.89 100 1012.2
20260502200033 11 19 1.6 14.5 0.00 0.46 0.89 100 1012.9
20260502195514 11 19 1.6 14.5 0.03 0.46 0.89 100 1012.5
20260502194953 11 18 6.4 14.5 0.03 0.46 0.89 100 1012.5
20260502194436 11 21 6.4 14.5 0.03 0.46 0.89 100 1012.2
20260502193930 11 38 3.2 14.5 0.03 0.46 0.89 100 1012.5
20260502193405 11 38 0.0 14.5 0.03 0.46 0.89 100 1012.9
20260502192903 11 38 1.6 14.5 0.03 0.46 0.89 100 1012.2
20260502192353 11 38 1.6 14.5 0.03 0.46 0.89 100 1012.5
20260502191843 11 39 3.2 14.5 0.03 0.46 0.89 100 1012.9
20260502191325 11 38 1.6 14.5 0.00 0.43 0.89 100 1012.9
20260502190751 11 39 1.6 14.5 0.00 0.43 0.89 100 1012.5
20260502190220 11 39 1.6 14.5 0.00 0.43 0.89 100 1012.9
20260502185706 11 33 1.6 14.5 0.00 0.43 0.89 100 1012.9
20260502185154 11 38 3.2 14.5 0.00 0.43 0.89 100 1013.2
20260502184638 11 38 0.0 14.5 0.00 0.43 0.89 100 1013.2
20260502184125 11 38 1.6 14.5 0.00 0.43 0.89 100 1012.9
20260502183528 11 101 1.6 14.5 0.03 0.43 0.89 100 1012.9
20260502183019 11 52 4.8 14.5 0.03 0.43 0.89 100 1012.5
20260502182511 11 95 0.0 14.5 0.03 0.43 0.89 100 1012.9
20260502181957 11 94 12.9 14.5 0.03 0.43 0.89 100 1012.2
20260502181447 11 118 8.0 14.5 0.03 0.43 0.89 100 1012.9
20260502180938 11 74 1.6 14.5 0.03 0.43 0.89 100 1013.2
20260502180423 11 100 0.0 14.5 0.03 0.43 0.89 100 1013.2
20260502170155 11 18 1.6 12.9 0.05 0.41 0.86 100 1012.9
20260502164124 11 35 3.2 12.9 0.05 0.41 0.84 100 1013.5
20260502163557 11 64 3.2 12.9 0.05 0.38 0.84 100 1013.2
20260502163035 11 98 1.6 12.9 0.05 0.38 0.84 100 1013.9
20260502162534 11 104 6.4 12.9 0.05 0.38 0.84 100 1013.5
20260502162009 11 43 6.4 12.9 0.05 0.38 0.84 100 1013.9
20260502161452 11 105 4.8 9.7 0.05 0.38 0.84 100 1013.9
20260502160925 11 47 1.6 9.7 0.05 0.38 0.81 100 1013.9
20260502160400 11 38 3.2 9.7 0.05 0.38 0.81 100 1014.2
20260502152101 11 24 4.8 9.7 0.10 0.33 0.79 100 1013.5
20260502151537 11 15 1.6 9.7 0.13 0.33 0.79 100 1013.2
20260502151012 11 15 1.6 9.7 0.10 0.33 0.79 100 1013.2
20260502150505 11 10 4.8 9.7 0.10 0.33 0.76 100 1013.5
20260502140124 11 12 0.0 9.7 0.03 0.20 0.66 100 1013.5
20260502130347 11 13 1.6 9.7 0.05 0.20 0.64 100 1012.9
20260502123748 11 14 0.0 9.7 0.05 0.20 0.61 100 1012.9
20260502123226 11 14 0.0 9.7 0.05 0.20 0.61 100 1012.9
20260502122713 11 14 1.6 9.7 0.05 0.18 0.61 100 1012.9
20260502122202 11 14 4.8 9.7 0.05 0.18 0.61 100 1012.9
20260502121650 11 14 1.6 9.7 0.05 0.18 0.61 100 1012.5
20260502121137 11 14 0.0 9.7 0.05 0.18 0.58 100 1012.5
20260502120632 11 15 1.6 9.7 0.05 0.18 0.58 100 1012.5
20260502120110 11 14 0.0 9.7 0.03 0.18 0.58 100 1012.2
20260502115557 11 14 1.6 9.7 0.05 0.18 0.58 100 1012.9
20260502115045 11 15 0.0 9.7 0.05 0.18 0.58 100 1012.9
20260502114531 11 13 0.0 9.7 0.03 0.15 0.56 100 1012.5
20260502114025 11 12 3.2 9.7 0.05 0.15 0.56 100 1012.9
20260502113504 11 1 0.0 9.7 0.05 0.15 0.56 100 1012.9
20260502112956 11 353 6.4 9.7 0.05 0.15 0.56 100 1012.9
20260502112433 11 349 4.8 9.7 0.05 0.15 0.56 100 1012.5
20260502111921 11 357 1.6 9.7 0.05 0.15 0.56 100 1012.5
20260502111409 11 3 3.2 9.7 0.05 0.15 0.56 100 1012.9
20260502110855 11 359 4.8 9.7 0.05 0.15 0.56 100 1012.2
20260502110344 11 346 3.2 9.7 0.05 0.15 0.56 100 1012.9
20260502105832 11 346 1.6 9.7 0.08 0.15 0.56 100 1012.9
20260502105320 11 344 0.0 9.7 0.08 0.13 0.53 100 1012.5
20260502104808 11 344 6.4 9.7 0.08 0.13 0.53 100 1012.5
20260502104255 11 344 1.6 9.7 0.08 0.13 0.53 100 1012.9
20260502103750 11 344 3.2 9.7 0.08 0.13 0.53 100 1012.9
20260502103228 11 345 1.6 9.7 0.08 0.13 0.53 100 1012.9
20260502102715 11 342 1.6 8.0 0.08 0.10 0.51 100 1012.9
20260502102203 11 339 3.2 8.0 0.05 0.10 0.51 100 1012.9
20260502101650 11 341 8.0 8.0 0.05 0.10 0.51 100 1012.9
20260502101138 11 1 4.8 6.4 0.05 0.10 0.51 100 1012.9
20260502100625 11 1 0.0 6.4 0.05 0.08 0.48 100 1012.5
20260502100113 12 1 1.6 6.4 0.03 0.08 0.48 100 1012.9
20260502091416 12 103 0.0 4.8 0.00 0.05 0.46 100 1012.9
20260502090904 12 103 0.0 4.8 0.00 0.05 0.46 100 1012.9
20260502090352 12 103 0.0 4.8 0.00 0.05 0.46 100 1012.5
20260502071419 12 103 0.0 4.8 0.00 0.05 0.46 100 1012.2
20260502070907 11 104 0.0 4.8 0.00 0.05 0.46 100 1011.9
20260502070355 11 103 0.0 4.8 0.00 0.05 0.46 100 1012.2
20260502065844 11 103 0.0 4.8 0.00 0.05 0.46 100 1012.2
20260502065331 11 103 0.0 4.8 0.00 0.05 0.46 100 1011.9
20260502064819 12 103 0.0 4.8 0.00 0.05 0.46 100 1012.2
20260502064306 12 103 0.0 4.8 0.00 0.05 0.46 100 1011.9
20260502063754 12 103 0.0 4.8 0.00 0.05 0.46 100 1012.2
20260502063248 12 103 0.0 4.8 0.00 0.05 0.46 100 1011.9
20260502062728 12 103 0.0 4.8 0.00 0.05 0.46 100 1012.2
20260502062214 12 104 0.0 4.8 0.00 0.05 0.46 100 1012.2
20260502061701 12 103 0.0 4.8 0.00 0.05 0.46 100 1012.5
20260502061150 12 103 0.0 4.8 0.00 0.05 0.46 100 1012.5
20260502060637 12 103 0.0 4.8 0.00 0.05 0.46 100 1012.5
20260502060125 12 104 0.0 4.8 0.00 0.05 0.46 100 1012.9
20260502055612 11 104 3.2 4.8 0.00 0.05 0.46 100 1012.5
20260502055100 12 104 1.6 4.8 0.00 0.05 0.46 100 1012.9
20260502054547 11 103 0.0 4.8 0.00 0.05 0.46 100 1012.9
20260502054035 11 103 0.0 4.8 0.00 0.05 0.46 100 1012.9
20260502053523 11 103 1.6 4.8 0.00 0.05 0.46 100 1012.9
20260502053011 11 103 1.6 3.2 0.00 0.05 0.46 100 1013.2
20260502052458 11 103 1.6 3.2 0.00 0.05 0.46 100 1012.9
20260502051946 11 103 0.0 1.6 0.00 0.05 0.46 100 1012.9
20260502051434 11 104 0.0 1.6 0.00 0.05 0.46 100 1012.9
20260502050921 11 103 0.0 1.6 0.00 0.05 0.46 100 1012.9